Погода Кулсары

Хотите узнать прогноз погоды Кулсары? Тогда Вам сюда: Погода Кулсары

Поиск расширенной информации на нашем сайте:

Полезная информация:

Новости сайта



02.01.2020
Опубликован Долгосрочный прогноз погоды по городам России и ближнего зарубежья на январь 2020 года.
Карты: Прогноз на январь и февраль 2020 года, Сравнение прогнозируемой аномалии приземной температуры воздуха на январь 2020 года по разным моделям.




Погода Кулсары - сегодня

Время (UTC), дата Ветер
(°,м/с) 
Видим.   Явления Облачность Т
(°С)
Тd
(°С)
f(%) Тe
(°С)
Pmin
(гПа)
dP
(гПа)
Po
(мм)
O2
(г/м3)
Тmin Tmax R s Состояние
почвы
12 22.10.21 280 (З) 20000 м    ясно 
+16.3 +1.1 36 +17  1023.3  -0.7  769  292           
15 22.10.21 290 (З) 10 км    ясно 
+12.7 +4.1 56 +14  1023.2  -0.1  768  295    +17.6       
18 22.10.21 тихо ()   10 км    ясно 
+10.1 +2.1 58 +10  1023.1  -0.1  768  298    +17.6       
21 22.10.21 тихо ()   10 км    6/6 600 м 
[Sc]
+9.7 +2.5 61 +10  1023.1  768  299           
00 23.10.21 280 (З) 10 км    6/6 600 м 
[Sc]
+8.9 +3 66 +9  1022  -1.1  768  299           
03 23.10.21 290 (З) 10 км    8/0 средняя 
[Ac und]
+10.4 +5 69 +10  1023.8  1.8  769  298           
06 23.10.21 190 (Ю) 20000 м    8/0 средняя 
[Ac und]
+13.9 +4.6 53 +14  1024.5  0.7  769  294  +8.9         
09 23.10.21 190 (Ю) 20000 м    4/0 средняя 
[Ac lent]
+19 +4.1 37 +20  1023.7  -0.8  769  289           
12 23.10.21 190 (Ю) 20000 м    ясно 
+19.3 +1.5 30 +21  1022.8  -0.9  768  289           
15 23.10.21 190 (Ю) 10 км    ясно 
+12.2 -6.7 26 +13  1022.8  768  297    +21.7       
18 23.10.21 тихо ()   10 км    ясно 
+7.2 -5.7 39 +7  1022.2  -0.6  768  302    +21.7       
21 23.10.21 тихо ()   10 км    ясно 
+4.3 -7.6 42 +4  1021.4  -0.7  767  305           
00 24.10.21 тихо ()   10 км    ясно 
+5.2 -8 38 +5  1020.8  -0.6  767  304           
03 24.10.21 тихо ()   10 км    ясно 
+2.5 -8.3 45 +3  1020.2  -0.6  766  307           
06 24.10.21 180 (Ю) 20000 м    ясно 
+10.5 -7.8 27 +11  1020.4  0.1  766  298  +2.3         
09 24.10.21 180 (Ю) 20000 м    ясно 
+17.6 -9.4 15 +19  1019  -1.4  765  291           
12 24.10.21 тихо ()   20000 м    ясно 
+19.1 -9.8 13 +19  1017.8  -1.2  764  289           
15 24.10.21 тихо ()   10 км    ясно 
+12.6 -10.3 19 +13  1017.6  -0.2  764  295    +20       
18 24.10.21 тихо ()   10 км    8/0 верхняя 
[Ci fib]
+7.7 -10.3 27 +8  1016.7  -0.9  764  300    +20       
21 24.10.21 тихо ()   10 км    8/0 верхняя 
[Ci fib]
+5.8 -10 31 +6  1015.3  -1.3  763  302           
00 25.10.21 тихо ()   10 км    6/0 верхняя 
[Ci fib]
+5 -10.5 32 +5  1014.4  -0.9  762  302           
03 25.10.21 тихо ()   10 км    8/0 средняя, верхняя 
[Ac lent|Ci fib]
+3.1 -10.3 37 +3  1014.5  0.1  762  305           
06 25.10.21 310 (СЗ) 20000 м    10/0 средняя 
[Ac und]
+9 -7.4 31 +10  1015.6  0.1  763  298  +3         
09 25.10.21 320 (СЗ) 20000 м    10/0 средняя 
[Ac und]
+13.5 +0.2 40 +14  1016  0.4  763  293           
12 25.10.21 320 (СЗ) 20000 м    10/10 600 м 
[Sc]
+12.6 +4.3 57 +11  1017.2  1.2  764  294           
Время (UTC), дата Ветер
(°,м/с) 
Видим.   Явления Облачность Т
(°С)
Тd
(°С)
f(%) Тe
(°С)
Pmin
(гПа)
dP
(гПа)
Po
(мм)
O2
(г/м3)
Тmin Tmax R s Состояние
почвы

Для получения пояснительной информации подведите курсор к названию столбца.

ПОГОДА Кулсары - архив

Всё, что Вы хотите узнать о погоде Кулсары - удобно и подробно!

Выберите нужную дату (начиная с 1 января 2019* года) и нажмите кнопку "Найти".
Будут отображены архивные сводки погоды по пункту Кулсары, начиная с указанной даты.


Отображать данные в формате CSV (для использования в таблицах Excel)


Внимание! Наш архив погоды предназначен исключительно для личного некоммерческого использования в познавательных целях. Если Вам необходимы официальные справки о состоянии погоды (для производственных, юридических, коммерческих и т.п. целей), обращайтесь в органы Росгидромета.

*Примечание: данная дата относится к архиву по метеостанциям СССР (Россия, СНГ, Балтия).
Архив по метеостанциям Зарубежной Европы и Азии (кроме Китая) хранится 10 дней, по другим регионам земного шара (Китай, Африка, Америка, Австралия, Океания) - 1 день.

Кулсары - район местоположения метеостанции


Название, широта, долгота, высота метеостанции:
Кулсары 46.8°ш. 53.9°д. 18 м над ур. моря [Казахстан]

Дополнительная информация

В oтличие oт бoльшинства пoгoдных сайтoв мы публикуем пoдрoбную метеoинфoрмацию в детальнoм прoфессиoнальнoм фoрмате.

Характеристики температуры и влажнoсти вoздуха измеряются на высoте 2 м в тени вдали oт зданий и деревьев.
Скoрoсть ветра измеряется на высoте 10 м (на урoвне рoста челoвека скoрoсть ветра ниже в 1.5-2 раза). Если метеoстанция нахoдится в гoрoде или в лесу, тo скoрoсть ветра занижена на 2-4 м/с пo сравнению с oткрытым местoм. Скoрoсть ветра над акватoриями крупных рек и oзёр, а также на вершинах хoлмoв на 2-5 м/с выше, чем в oбычных услoвиях.
Атмoсфернoе давление в разных тoчках местнoсти мoжет значительнo oтличаться oт давления на метеoстанции, в зависимoсти oт услoвий рельефа (при пoдъёме на 10 м давление пoнижается примернo на 1 мм рт.ст.).